Location: Lynch Observatory
(39.9540°N, 75.1861°W)
Time: 00:10:12
(UTC-04:00)

ZACube-1 - Pass Details

Date: 28 April 2024
Orbit: 566 x 635 km, 97.7° (Epoch: 27 May)

Event Time Altitude Azimuth Distance (km) Brightness Sun altitude
Rises 02:43:01 0° 35° (NE) 2,938 ? -30.5°
Reaches altitude 10° 02:46:26 10° 63° (ENE) 2,028 ? -30.2°
Maximum altitude 02:48:29 13° 91° (E) 1,830 ? -30.0°
Enters shadow 02:49:25 12° 104° (ESE) 1,870 ? -29.9°
